Weather History for Rome, OR

Change the Weather History Date:

Friday, April 18, 2014

  Actual Average Record
Temperature  
Mean Temperature 51 °F 46 °F  
Max Temperature 66 °F 62 °F 89 °F (1994)
Min Temperature 36 °F 31 °F 17 °F (2013)
Degree Days  
Heating Degree Days 14 19  
Month to date heating degree days 291 374  
Since 1 July heating degree days 5386 5889  
Cooling Degree Days 0 0  
Month to date cooling degree days 0 0  
Year to date cooling degree days 0 0  
Growing Degree Days 4 (Base 50)    
Moisture  
Dew Point 25 °F    
Average Humidity 48    
Maximum Humidity 86    
Minimum Humidity 10    
Precipitation  
Precipitation 0.00 in 0.04 in 0.40 in (2011)
Month to date precipitation 0.27 0.55  
Year to date precipitation 1.40 2.94  
Sea Level Pressure  
Sea Level Pressure 29.92 in    
Wind  
Wind Speed 7 mph (NE)    
Max Wind Speed 16 mph    
Max Gust Speed 20 mph    
T = Trace of Precipitation, MM = Missing Value Source: NWS Daily Summary

Daily Weather History Graph

Daily Weather History Graph

Search for Another Location

Airport:

Trip Planner

Search our weather history database for the weather conditions in past years. The results will help you decide how hot, cold, wet, or windy it might be!

Date:

Astronomy

Apr. 18, 2014 Rise Set
Actual Time 6:05 AM PDT 7:36 PM PDT
Civil Twilight 5:35 AM PDT 8:06 PM PDT
Nautical Twilight 5:00 AM PDT 8:42 PM PDT
Astronomical Twilight 4:22 AM PDT 9:20 PM PDT
Moon 11:29 PM PDT (4/18) 8:28 AM PDT (4/18)
Length of Visible Light 14h 30m
Length of Day
13h 31m
Waning Gibbous, 86% of the Moon is Illuminated
Apr 18
Waning Gibbous
Apr 22
Last Quarter
Apr 28
New
May 6
First Quarter
May 14
Full

Hourly Weather History & Observations

Time (PDT) Temp. Windchill Dew Point Humidity Pressure Visibility Wind Dir Wind Speed Gust Speed Precip Events Conditions
12:52 AM 46.9 °F - 37.0 °F 68% 29.86 in - East 4.6 mph - N/A   Unknown
1:52 AM 46.0 °F 42.5 °F 37.9 °F 73% 29.87 in - East 6.9 mph - N/A   Unknown
2:52 AM 46.0 °F 43.1 °F 37.9 °F 73% 29.87 in - ENE 5.8 mph - N/A   Unknown
3:52 AM 45.0 °F 41.2 °F 39.0 °F 80% 29.89 in - ESE 6.9 mph - N/A   Unknown
4:52 AM 46.0 °F - 39.9 °F 79% 29.89 in - Calm Calm - N/A   Unknown
5:52 AM 44.1 °F 42.5 °F 37.9 °F 79% 29.91 in - East 3.5 mph - N/A   Unknown
6:52 AM 41.0 °F 39.0 °F 37.9 °F 89% 29.98 in - NE 3.5 mph - N/A   Unknown
7:52 AM 46.0 °F 41.4 °F 37.9 °F 73% 30.01 in - NE 9.2 mph - N/A   Unknown
8:52 AM 48.0 °F - 36.0 °F 63% 30.01 in - East 9.2 mph - N/A   Unknown
11:52 AM 55.9 °F - 32.0 °F 40% 29.99 in - North - - N/A   Unknown
12:52 PM 57.9 °F - 26.1 °F 30% 29.97 in - East 8.1 mph - N/A   Unknown
1:52 PM 61.0 °F - 24.1 °F 24% 29.95 in - Variable 5.8 mph - N/A   Unknown
2:52 PM 63.0 °F - 21.0 °F 20% 29.91 in - Variable 4.6 mph - N/A   Unknown
3:52 PM 64.0 °F - 12.0 °F 13% 29.89 in - Variable 4.6 mph - N/A   Unknown
4:52 PM 66.0 °F - 9.0 °F 11% 29.88 in - NW 10.4 mph - N/A   Unknown
5:52 PM 64.9 °F - 9.0 °F 11% 29.87 in - West 4.6 mph - N/A   Unknown
6:52 PM 64.0 °F - 12.9 °F 14% 29.88 in - North 11.5 mph - N/A   Unknown
7:52 PM 55.0 °F - 7.0 °F 15% 29.91 in - North 11.5 mph - N/A   Unknown
8:52 PM 48.0 °F - 8.1 °F 20% 29.94 in - NNE 6.9 mph - N/A   Unknown
9:52 PM 48.0 °F - 10.9 °F 22% 29.95 in - NE 8.1 mph - N/A   Unknown
10:52 PM 41.0 °F 37.1 °F 12.9 °F 32% 29.96 in - NNE 5.8 mph - N/A   Unknown
11:52 PM 39.9 °F 37.8 °F 16.0 °F 38% 29.95 in - North 3.5 mph - N/A   Unknown